[[{"header":{"parameterUnit":"m.s-1","parameterCategory":1,"la1":30.2991,"la2":30.254,"lo1":-89.0895,"lo2":-89.0444,"dy":0.0017,"dx":0.0017,"nx":28,"ny":28,"refTime":"2024-05-22T03:00:00:Z","depth":0,"parameterNumber":2,"parameterNumberName":"U-component_of_WINDS"},"data":[0,0,0,0,0,0,0,0,0,0,0,0,0,0,0,0,0,0,0,0,0,0,0,0,0,0,0,0,0,0,0,0,0,0,0,0,0,0,0,0,0,0,0,0,0,0,0,0,0,0,0,0,0,0,0,0,0,0,-1.3483,-1.3483,0,-1.3483,-1.3483,-1.3483,-1.3457,-1.3457,-1.3456,-1.3455,-1.3456,-1.3457,-1.3458,0,0,0,0,0,0,0,0,0,0,0,0,0,-1.3462,-1.3463,-1.3483,-1.3483,-1.3483,-1.3483,-1.3483,-1.3483,-1.3457,-1.3457,-1.3456,-1.3455,-1.3456,-1.3457,-1.3458,0,0,0,0,0,0,0,0,0,0,0,0,0,-1.3468,-1.3463,-1.3483,-1.347,-1.3469,-1.3483,-1.3483,-1.3483,-1.3458,-1.3457,-1.3456,-1.3455,-1.3456,-1.3457,-1.3458,-1.3485,0,0,-1.3461,-1.3461,0,0,0,0,0,0,0,0,-1.3467,-1.3468,-1.3472,-1.3471,-1.347,-1.3469,-1.3476,-1.3484,-1.3458,-1.3462,-1.3455,-1.3454,-1.3462,-1.3462,-1.3464,-1.3485,-1.3485,-1.3461,-1.3462,-1.3462,-1.3462,0,0,0,0,0,0,0,-1.3467,-1.3468,-1.3483,-1.3472,-1.3471,-1.3465,-1.3465,-1.3478,-1.3468,-1.3462,-1.346,-1.346,-1.3461,-1.3463,-1.3464,-1.3485,-1.3461,-1.3462,-1.3462,-1.3463,-1.3528,-1.3529,0,0,0,0,0,0,-1.3468,-1.3468,-1.3483,-1.3483,-1.3466,-1.3466,-1.3466,-1.3471,-1.3467,-1.3466,-1.3461,-1.3459,-1.3462,-1.3463,-1.3464,-1.3496,-1.3462,-1.3463,-1.3464,-1.3527,-1.3528,-1.3529,0,0,0,0,0,0,-1.3468,-1.347,-1.3483,-1.3475,-1.3476,-1.3468,-1.3473,-1.3471,-1.3474,-1.3467,-1.3465,-1.3465,-1.3461,-1.3463,-1.348,-1.3495,-1.3463,-1.3464,-1.3525,-1.3527,-1.3528,-1.3559,0,0,0,0,0,0,-1.3467,-1.347,-1.348,-1.3476,-1.3477,-1.3499,-1.3474,-1.3472,-1.3475,-1.3473,-1.3471,-1.3469,-1.3461,-1.3478,-1.3481,-1.3496,-1.3465,-1.3524,-1.3526,-1.3528,-1.3556,-1.3561,-1.3565,0,0,0,0,0,-1.3467,-1.3488,-1.348,-1.3482,-1.3489,-1.35,-1.35,-1.349,-1.3477,-1.3487,-1.3482,-1.3469,-1.3493,-1.348,-1.3483,-1.3499,-1.3523,-1.3525,-1.3528,-1.3554,-1.356,-1.3565,0,0,0,0,0,0,-1.3495,-1.3488,-1.3479,-1.3499,-1.35,-1.3495,-1.3508,-1.3497,-1.3501,-1.3499,-1.3486,-1.3486,-1.3505,-1.3503,-1.3489,-1.3525,-1.3506,-1.3509,-1.3525,-1.353,-1.3535,-1.3535,-1.3466,0,0,0,0,0,-1.3503,-1.3512,-1.3506,-1.3525,-1.3525,-1.3517,-1.3521,-1.3513,-1.3513,-1.3513,-1.351,-1.3512,-1.3519,-1.3525,-1.3532,-1.3556,-1.3555,-1.3568,-1.3572,-1.3576,-1.3579,-1.3592,-1.3598,-1.3537,-1.3537,-1.3537,0,0,-1.3521,-1.3518,-1.3525,-1.353,-1.353,-1.354,-1.3517,-1.3528,-1.3536,-1.3515,-1.3531,-1.3529,-1.353,-1.3551,-1.356,-1.355,-1.3596,-1.3579,-1.3582,-1.3583,-1.3595,-1.3601,-1.3606,-1.3539,-1.3539,-1.3538,0,0,-1.3559,-1.3557,-1.3573,-1.3573,-1.3573,-1.3567,-1.3571,-1.3568,-1.3565,-1.3581,-1.3566,-1.3575,-1.3588,-1.3589,-1.3592,-1.363,-1.3619,-1.3633,-1.3657,-1.367,-1.3674,-1.3678,-1.3693,-1.3698,-1.3636,-1.3636,-1.3636,0,-1.3581,-1.3595,-1.3583,-1.3595,-1.3598,-1.358,-1.3596,-1.3597,-1.3599,-1.3602,-1.3591,-1.3608,-1.3607,-1.3628,-1.3637,-1.364,-1.3644,-1.3633,-1.3675,-1.3679,-1.3682,-1.3696,-1.3701,-1.3637,-1.3637,-1.3637,-1.3637,0,-1.3623,-1.3633,-1.3646,-1.3648,-1.3652,-1.3667,-1.3657,-1.3663,-1.3655,-1.365,-1.3666,-1.3665,-1.3671,-1.3675,-1.3667,-1.3695,-1.3689,-1.3677,-1.3657,-1.369,-1.3702,-1.3707,-1.364,-1.3639,-1.3639,-1.3638,0,0,-1.3679,-1.3674,-1.3679,-1.368,-1.3678,-1.3686,-1.3699,-1.3705,-1.3711,-1.3713,-1.3724,-1.3736,-1.3725,-1.3727,-1.3719,-1.373,-1.3761,-1.3716,-1.3716,-1.3725,-1.3793,-1.3803,-1.3809,-1.3754,-1.3755,-1.3755,-1.3793,0,-1.3715,-1.3738,-1.3727,-1.3751,-1.3761,-1.3743,-1.3755,-1.3756,-1.3752,-1.3759,-1.3755,-1.3764,-1.3747,-1.3749,-1.3759,-1.3756,-1.3775,-1.3753,-1.3765,-1.3765,-1.3765,-1.3815,-1.3825,-1.3861,-1.3798,-1.3798,-1.3799,0,-1.3761,-1.3765,-1.379,-1.3787,-1.379,-1.3801,-1.3806,-1.3813,-1.3813,-1.381,-1.3813,-1.3802,-1.3816,-1.3797,-1.3815,-1.38,-1.3805,-1.3804,-1.3805,-1.3806,-1.3784,-1.3818,-1.3872,-1.3878,-1.3806,-1.3806,-1.3805,0,-1.38,-1.3811,-1.3828,-1.3829,-1.3825,-1.3834,-1.3833,-1.3832,-1.3836,-1.384,-1.3843,-1.3849,-1.3852,-1.3857,-1.3848,-1.3835,-1.3869,-1.3849,-1.3866,-1.3867,-1.3875,-1.3874,-1.3931,-1.3877,-1.3877,-1.3877,-1.3876,0,-1.3843,-1.3859,-1.3845,-1.3855,-1.3873,-1.386,-1.3878,-1.3875,-1.3875,-1.3885,-1.387,-1.388,-1.3867,-1.3876,-1.3869,-1.3886,-1.3887,-1.3885,-1.3883,-1.3887,-1.3887,-1.389,-1.3887,-1.3878,-1.3878,-1.3877,-1.3877,0,-1.3889,-1.388,-1.3897,-1.3892,-1.3892,-1.3905,-1.3901,-1.391,-1.3905,-1.3918,-1.392,-1.3912,-1.3921,-1.3913,-1.3922,-1.3917,-1.394,-1.3934,-1.3939,-1.3938,-1.3956,-1.3955,-1.4017,-1.4025,-1.3965,-1.3966,-1.3966,0,-1.3917,-1.3929,-1.3925,-1.393,-1.393,-1.3939,-1.3943,-1.3931,-1.3936,-1.3938,-1.3947,-1.3955,-1.3961,-1.3976,-1.3971,-1.3978,-1.3973,-1.3994,-1.3974,-1.3977,-1.3974,-1.3973,-1.3975,-1.3998,-1.3999,-1.4,-1.4,0,-1.3968,-1.3963,-1.3969,-1.3974,-1.3979,-1.3982,-1.3985,-1.399,-1.3978,-1.3985,-1.3993,-1.3998,-1.4007,-1.4015,-1.402,-1.4019,-1.4008,-1.4006,-1.4011,-1.4015,-1.4018,-1.4017,-1.3951,-1.4005,-1.4005,-1.4004,-1.4004,-1.4004,-1.4006,-1.4016,-1.4015,-1.4022,-1.4023,-1.4025,-1.4034,-1.4029,-1.4037,-1.4043,-1.4035,-1.4046,-1.4047,-1.4053,-1.4053,-1.4062,-1.4053,-1.406,-1.4062,-1.4064,-1.4066,-1.4016,-1.4063,-1.4063,-1.4063,-1.4063,-1.4062,0,-1.4056,-1.4055,-1.4062,-1.4065,-1.4071,-1.4059,-1.4061,-1.4067,-1.4077,-1.4078,-1.4084,-1.4094,-1.4102,-1.4098,-1.4104,-1.4112,-1.4107,-1.4115,-1.4114,-1.4114,-1.4074,-1.4069,-1.4118,-1.4118,-1.4118,-1.4118,-1.4118,-1.4118,-1.4083,-1.4099,-1.4094,-1.4111,-1.4109,-1.4119,-1.4122,-1.4124,-1.4125,-1.4137,-1.4143,-1.414,-1.4139,-1.4145,-1.4152,-1.4151,-1.4154,-1.4163,-1.416,-1.4123,-1.4117,-1.4112,-1.4108,-1.4164,-1.4164,-1.42,-1.4201,-1.4201]},{"header":{"parameterUnit":"m.s-1","parameterCategory":1,"la1":30.2991,"la2":30.254,"lo1":-89.0895,"lo2":-89.0444,"dy":0.0017,"dx":0.0017,"nx":28,"ny":28,"refTime":"2024-05-22T03:00:00:Z","depth":0,"parameterNumber":3,"parameterNumberName":"V-component_of_WINDS"},"data":[0,0,0,0,0,0,0,0,0,0,0,0,0,0,0,0,0,0,0,0,0,0,0,0,0,0,0,0,0,0,0,0,0,0,0,0,0,0,0,0,0,0,0,0,0,0,0,0,0,0,0,0,0,0,0,0,0,0,4.7736,4.7736,0,4.7723,4.7723,4.7723,4.7651,4.7649,4.7648,4.7646,4.7634,4.7635,4.7636,0,0,0,0,0,0,0,0,0,0,0,0,0,4.77,4.7701,4.7736,4.7736,4.7736,4.7723,4.7723,4.7723,4.7651,4.7649,4.7647,4.7645,4.7633,4.7635,4.7636,0,0,0,0,0,0,0,0,0,0,0,0,0,4.7704,4.7701,4.7736,4.7698,4.7695,4.7723,4.7723,4.7723,4.7652,4.7649,4.7647,4.7644,4.7633,4.7635,4.7637,4.77,0,0,4.7642,4.7643,0,0,0,0,0,0,0,0,4.7704,4.7705,4.7704,4.7701,4.7697,4.7686,4.7705,4.7715,4.7652,4.7668,4.7646,4.7643,4.7653,4.7653,4.7657,4.7699,4.7699,4.7643,4.7644,4.7645,4.7645,0,0,0,0,0,0,0,4.7704,4.7706,4.7731,4.7704,4.77,4.7683,4.768,4.7707,4.7675,4.7667,4.7661,4.7661,4.7651,4.7655,4.7656,4.7699,4.7643,4.7644,4.7645,4.7646,4.7792,4.7795,0,0,0,0,0,0,4.7709,4.7706,4.7731,4.773,4.7694,4.7685,4.7683,4.7692,4.7675,4.767,4.7663,4.7658,4.7653,4.7654,4.7655,4.7727,4.7645,4.7646,4.7647,4.7789,4.7793,4.7796,0,0,0,0,0,0,4.7708,4.7711,4.7732,4.7717,4.7718,4.7689,4.77,4.7693,4.7697,4.7672,4.7666,4.7673,4.7651,4.7652,4.7689,4.7725,4.7647,4.7649,4.7786,4.779,4.7794,4.7872,0,0,0,0,0,0,4.7707,4.7712,4.7735,4.7718,4.7719,4.7766,4.7702,4.7695,4.7701,4.7693,4.768,4.7675,4.7649,4.7687,4.7691,4.7727,4.765,4.7783,4.7788,4.7793,4.7866,4.7878,4.7888,0,0,0,0,0,4.7706,4.7758,4.7737,4.774,4.7748,4.7768,4.7769,4.7737,4.7704,4.7727,4.7711,4.7676,4.7721,4.7691,4.7695,4.7732,4.778,4.7786,4.7792,4.7861,4.7876,4.7888,0,0,0,0,0,0,4.7781,4.7755,4.7731,4.7779,4.7776,4.7756,4.7784,4.7754,4.7761,4.7754,4.7715,4.7713,4.7755,4.7748,4.7714,4.7792,4.7745,4.7752,4.7795,4.7809,4.782,4.782,4.7652,0,0,0,0,0,4.7803,4.7821,4.7798,4.7842,4.7842,4.7814,4.7821,4.7798,4.7793,4.7792,4.7778,4.7776,4.7789,4.7799,4.7811,4.7865,4.7861,4.7893,4.7904,4.7914,4.792,4.7947,4.796,4.7816,4.7816,4.7816,0,0,4.7848,4.7837,4.785,4.7857,4.7852,4.7872,4.7813,4.7837,4.7851,4.7795,4.7828,4.7819,4.7814,4.7859,4.7879,4.7854,4.7959,4.7921,4.7929,4.793,4.7955,4.7968,4.798,4.782,4.7819,4.7818,0,0,4.7941,4.7934,4.797,4.7966,4.7959,4.794,4.7949,4.7933,4.7925,4.7957,4.7916,4.7933,4.7958,4.7955,4.7957,4.805,4.8017,4.8055,4.8113,4.814,4.8151,4.8161,4.8193,4.8204,4.8061,4.8062,4.8062,0,4.7998,4.8025,4.7992,4.8018,4.8021,4.7973,4.8008,4.8006,4.8004,4.8008,4.7981,4.801,4.8003,4.8047,4.8069,4.8074,4.8082,4.8055,4.8152,4.8162,4.8171,4.82,4.8212,4.8066,4.8066,4.8065,4.8065,0,4.8096,4.8116,4.8145,4.8143,4.8151,4.8182,4.8153,4.8164,4.8141,4.8125,4.8158,4.8149,4.8157,4.8166,4.8143,4.8206,4.8191,4.8159,4.811,4.819,4.8216,4.8228,4.8072,4.8071,4.807,4.8068,0,0,4.8233,4.8212,4.8223,4.8221,4.8211,4.8226,4.8255,4.8262,4.8272,4.8273,4.8295,4.8318,4.8288,4.829,4.8267,4.8291,4.8363,4.8256,4.8255,4.8274,4.8431,4.8453,4.8467,4.8342,4.8344,4.8346,4.8431,0,4.8319,4.8366,4.8337,4.8388,4.8406,4.836,4.8385,4.8382,4.8368,4.8381,4.8366,4.8382,4.8342,4.8343,4.8365,4.835,4.8394,4.8344,4.8362,4.8363,4.8362,4.8481,4.8505,4.8585,4.8441,4.8443,4.8444,0,4.8426,4.8431,4.8484,4.8469,4.8475,4.8498,4.8502,4.8516,4.8511,4.8499,4.8503,4.8473,4.8501,4.8454,4.8491,4.8458,4.8464,4.8458,4.846,4.8459,4.8407,4.8481,4.861,4.8622,4.8461,4.846,4.8458,0,4.8518,4.8538,4.8572,4.8572,4.8556,4.8573,4.8568,4.856,4.8567,4.8571,4.8574,4.8582,4.8586,4.8593,4.8567,4.8536,4.8607,4.8559,4.8597,4.8598,4.8612,4.8611,4.8742,4.862,4.862,4.862,4.8619,0,4.8617,4.8651,4.8613,4.8633,4.867,4.8637,4.8674,4.8664,4.8658,4.8675,4.8638,4.8655,4.8621,4.8635,4.8615,4.8648,4.8651,4.8641,4.8635,4.8643,4.8644,4.8645,4.8638,4.8623,4.8622,4.8622,4.8621,0,4.8725,4.8701,4.8735,4.8717,4.8714,4.8741,4.8726,4.8745,4.8729,4.8752,4.8756,4.8731,4.8746,4.8721,4.8733,4.872,4.8765,4.8751,4.8766,4.8761,4.88,4.8796,4.8934,4.895,4.882,4.8822,4.8823,0,4.8788,4.8813,4.8798,4.8807,4.8803,4.8819,4.8825,4.8794,4.8802,4.8798,4.8817,4.8829,4.8836,4.8862,4.8845,4.8854,4.8839,4.8887,4.884,4.8848,4.8838,4.8836,4.8837,4.8896,4.8898,4.8899,4.89,0,4.8903,4.8889,4.8899,4.8905,4.8913,4.8917,4.8917,4.8927,4.8894,4.8905,4.892,4.8925,4.8938,4.8949,4.8955,4.8949,4.8919,4.8915,4.8924,4.8932,4.8938,4.8933,4.879,4.8912,4.8911,4.891,4.8909,4.8909,4.8988,4.9008,4.9,4.9012,4.901,4.9011,4.9027,4.9013,4.9025,4.9031,4.9013,4.9032,4.9027,4.903,4.9028,4.9042,4.9021,4.9035,4.9038,4.9041,4.9046,4.8938,4.9044,4.9043,4.9043,4.9043,4.9042,0,4.9099,4.9092,4.9104,4.9105,4.9115,4.9086,4.9086,4.9095,4.9112,4.911,4.9118,4.9134,4.9146,4.913,4.9139,4.9153,4.914,4.9157,4.9154,4.9153,4.9066,4.9056,4.9167,4.9167,4.9167,4.9167,4.9167,4.9167,4.9157,4.9188,4.9174,4.9204,4.9196,4.9214,4.9216,4.9217,4.9214,4.9234,4.9243,4.9233,4.9226,4.9233,4.9243,4.9238,4.9242,4.9263,4.9254,4.9172,4.9159,4.9148,4.9138,4.9265,4.9265,4.9339,4.934,4.9341]}]]